Year,Month,Day,Hour,Minute,Value (Times are PST for windgust in km/hr)
2010,07,10,00,00,27.40
2010,07,10,00,01,20.90
2010,07,10,00,02,20.90
2010,07,10,00,03,19.30
2010,07,10,00,04,17.70
2010,07,10,00,05,22.50
2010,07,10,00,06,17.70
2010,07,10,00,07,24.20
2010,07,10,00,08,16.10
2010,07,10,00,09,17.70
2010,07,10,00,10,17.70
2010,07,10,00,11,17.70
2010,07,10,00,12,17.70
2010,07,10,00,13,29.00
2010,07,10,00,14,20.90
2010,07,10,00,15,27.40
2010,07,10,00,16,24.20
2010,07,10,00,17,19.30
2010,07,10,00,18,19.30
2010,07,10,00,19,20.90
2010,07,10,00,20,17.70
2010,07,10,00,21,24.20
2010,07,10,00,22,22.50
2010,07,10,00,23,19.30
2010,07,10,00,24,19.30
2010,07,10,00,25,16.10
2010,07,10,00,26,22.50
2010,07,10,00,27,20.90
2010,07,10,00,28,17.70
2010,07,10,00,29,17.70
2010,07,10,00,30,19.30
2010,07,10,00,31,20.90
2010,07,10,00,32,19.30
2010,07,10,00,33,25.70
2010,07,10,00,34,27.40
2010,07,10,00,35,22.50
2010,07,10,00,36,14.50
2010,07,10,00,37,29.00
2010,07,10,00,38,30.60
2010,07,10,00,39,27.40
2010,07,10,00,40,22.50
2010,07,10,00,41,25.70
2010,07,10,00,42,25.70
2010,07,10,00,43,19.30
2010,07,10,00,44,25.70
2010,07,10,00,45,16.10
2010,07,10,00,46,30.60
2010,07,10,00,47,22.50
2010,07,10,00,48,24.20
2010,07,10,00,49,22.50
2010,07,10,00,50,19.30
2010,07,10,00,51,19.30
2010,07,10,00,52,22.50
2010,07,10,00,53,19.30
2010,07,10,00,54,27.40
2010,07,10,00,55,20.90
2010,07,10,00,56,27.40
2010,07,10,00,57,25.70
2010,07,10,00,58,17.70
2010,07,10,00,59,29.00
2010,07,10,01,00,17.70
2010,07,10,01,01,19.30
2010,07,10,01,02,19.30
2010,07,10,01,03,20.90
2010,07,10,01,04,22.50
2010,07,10,01,05,11.30
2010,07,10,01,06,11.30
2010,07,10,01,07,22.50
2010,07,10,01,08,19.30
2010,07,10,01,09,24.20
2010,07,10,01,10,14.50
2010,07,10,01,11,11.30
2010,07,10,01,12,19.30
2010,07,10,01,13,14.50
2010,07,10,01,14,19.30
2010,07,10,01,15,17.70
2010,07,10,01,16,19.30
2010,07,10,01,17,9.60
2010,07,10,01,18,11.30
2010,07,10,01,19,11.30
2010,07,10,01,20,16.10
2010,07,10,01,21,16.10
2010,07,10,01,22,16.10
2010,07,10,01,23,12.90
2010,07,10,01,24,14.50
2010,07,10,01,25,14.50
2010,07,10,01,26,14.50
2010,07,10,01,27,19.30
2010,07,10,01,28,17.70
2010,07,10,01,29,12.90
2010,07,10,01,30,8.10
2010,07,10,01,31,19.30
2010,07,10,01,32,16.10
2010,07,10,01,33,14.50
2010,07,10,01,34,11.30
2010,07,10,01,35,14.50
2010,07,10,01,36,9.60
2010,07,10,01,37,20.90
2010,07,10,01,38,25.70
2010,07,10,01,39,20.90
2010,07,10,01,40,20.90
2010,07,10,01,41,25.70
2010,07,10,01,42,25.70
2010,07,10,01,43,19.30
2010,07,10,01,44,20.90
2010,07,10,01,45,19.30
2010,07,10,01,46,19.30
2010,07,10,01,47,29.00
2010,07,10,01,48,19.30
2010,07,10,01,49,27.40
2010,07,10,01,50,27.40
2010,07,10,01,51,30.60
2010,07,10,01,52,19.30
2010,07,10,01,53,27.40
2010,07,10,01,54,27.40
2010,07,10,01,55,30.60
2010,07,10,01,56,12.90
2010,07,10,01,57,24.20
2010,07,10,01,58,19.30
2010,07,10,01,59,32.20
2010,07,10,02,00,24.20
2010,07,10,02,01,22.50
2010,07,10,02,02,29.00
2010,07,10,02,03,25.70
2010,07,10,02,04,27.40
2010,07,10,02,05,24.20
2010,07,10,02,06,25.70
2010,07,10,02,07,25.70
2010,07,10,02,08,27.40
2010,07,10,02,09,22.50
2010,07,10,02,10,19.30
2010,07,10,02,11,24.20
2010,07,10,02,12,24.20
2010,07,10,02,13,19.30
2010,07,10,02,14,25.70
2010,07,10,02,15,19.30
2010,07,10,02,16,22.50
2010,07,10,02,17,17.70
2010,07,10,02,18,24.20
2010,07,10,02,19,24.20
2010,07,10,02,20,27.40
2010,07,10,02,21,27.40
2010,07,10,02,22,22.50
2010,07,10,02,23,20.90
2010,07,10,02,24,29.00
2010,07,10,02,25,16.10
2010,07,10,02,26,22.50
2010,07,10,02,27,32.20
2010,07,10,02,28,16.10
2010,07,10,02,29,29.00
2010,07,10,02,30,22.50
2010,07,10,02,31,22.50
2010,07,10,02,32,16.10
2010,07,10,02,33,22.50
2010,07,10,02,34,20.90
2010,07,10,02,35,16.10
2010,07,10,02,36,22.50
2010,07,10,02,37,29.00
2010,07,10,02,38,27.40
2010,07,10,02,39,27.40
2010,07,10,02,40,29.00
2010,07,10,02,41,22.50
2010,07,10,02,42,19.30
2010,07,10,02,43,22.50
2010,07,10,02,44,29.00
2010,07,10,02,45,29.00
2010,07,10,02,46,27.40
2010,07,10,02,47,25.70
2010,07,10,02,48,30.60
2010,07,10,02,49,29.00
2010,07,10,02,50,24.20
2010,07,10,02,51,30.60
2010,07,10,02,52,22.50
2010,07,10,02,53,25.70
2010,07,10,02,54,24.20
2010,07,10,02,55,27.40
2010,07,10,02,56,30.60
2010,07,10,02,57,27.40
2010,07,10,02,58,29.00
2010,07,10,02,59,32.20
2010,07,10,03,00,29.00
2010,07,10,03,01,25.70
2010,07,10,03,02,20.90
2010,07,10,03,03,27.40
2010,07,10,03,04,22.50
2010,07,10,03,05,17.70
2010,07,10,03,06,24.20
2010,07,10,03,07,22.50
2010,07,10,03,08,25.70
2010,07,10,03,09,24.20
2010,07,10,03,10,24.20
2010,07,10,03,11,22.50
2010,07,10,03,12,17.70
2010,07,10,03,13,25.70
2010,07,10,03,14,27.40
2010,07,10,03,15,24.20
2010,07,10,03,16,22.50
2010,07,10,03,17,20.90
2010,07,10,03,18,22.50
2010,07,10,03,19,16.10
2010,07,10,03,20,17.70
2010,07,10,03,21,19.30
2010,07,10,03,22,20.90
2010,07,10,03,23,27.40
2010,07,10,03,24,27.40
2010,07,10,03,25,29.00
2010,07,10,03,26,24.20
2010,07,10,03,27,22.50
2010,07,10,03,28,14.50
2010,07,10,03,29,19.30
2010,07,10,03,30,20.90
2010,07,10,03,31,17.70
2010,07,10,03,32,24.20
2010,07,10,03,33,24.20
2010,07,10,03,34,20.90
2010,07,10,03,35,24.20
2010,07,10,03,36,19.30
2010,07,10,03,37,16.10
2010,07,10,03,38,11.30
2010,07,10,03,39,12.90
2010,07,10,03,40,17.70
2010,07,10,03,41,20.90
2010,07,10,03,42,19.30
2010,07,10,03,43,24.20
2010,07,10,03,44,20.90
2010,07,10,03,45,20.90
2010,07,10,03,46,25.70
2010,07,10,03,47,22.50
2010,07,10,03,48,24.20
2010,07,10,03,49,19.30
2010,07,10,03,50,22.50
2010,07,10,03,51,17.70
2010,07,10,03,52,22.50
2010,07,10,03,53,25.70
2010,07,10,03,54,27.40
2010,07,10,03,55,24.20
2010,07,10,03,56,17.70
2010,07,10,03,57,19.30
2010,07,10,03,58,17.70
2010,07,10,03,59,22.50
2010,07,10,04,00,17.70
2010,07,10,04,01,20.90
2010,07,10,04,02,19.30
2010,07,10,04,03,19.30
2010,07,10,04,04,17.70
2010,07,10,04,05,20.90
2010,07,10,04,06,16.10
2010,07,10,04,07,19.30
2010,07,10,04,08,19.30
2010,07,10,04,09,24.20
2010,07,10,04,10,16.10
2010,07,10,04,11,19.30
2010,07,10,04,12,14.50
2010,07,10,04,13,16.10
2010,07,10,04,14,16.10
2010,07,10,04,15,20.90
2010,07,10,04,16,19.30
2010,07,10,04,17,14.50
2010,07,10,04,18,14.50
2010,07,10,04,19,17.70
2010,07,10,04,20,19.30
2010,07,10,04,21,20.90
2010,07,10,04,22,19.30
2010,07,10,04,23,17.70
2010,07,10,04,24,25.70
2010,07,10,04,25,17.70
2010,07,10,04,26,22.50
2010,07,10,04,27,14.50
2010,07,10,04,28,16.10
2010,07,10,04,29,20.90
2010,07,10,04,30,17.70
2010,07,10,04,31,20.90
2010,07,10,04,32,19.30
2010,07,10,04,33,20.90
2010,07,10,04,34,20.90
2010,07,10,04,35,12.90
2010,07,10,04,36,16.10
2010,07,10,04,37,22.50
2010,07,10,04,38,24.20
2010,07,10,04,39,22.50
2010,07,10,04,40,20.90
2010,07,10,04,41,14.50
2010,07,10,04,42,17.70
2010,07,10,04,43,22.50
2010,07,10,04,44,22.50
2010,07,10,04,45,16.10
2010,07,10,04,46,20.90
2010,07,10,04,47,20.90
2010,07,10,04,48,24.20
2010,07,10,04,49,19.30
2010,07,10,04,50,20.90
2010,07,10,04,51,24.20
2010,07,10,04,52,19.30
2010,07,10,04,53,22.50
2010,07,10,04,54,22.50
2010,07,10,04,55,25.70
2010,07,10,04,56,17.70
2010,07,10,04,57,19.30
2010,07,10,04,58,19.30
2010,07,10,04,59,19.30
2010,07,10,05,00,22.50
2010,07,10,05,01,14.50
2010,07,10,05,02,20.90
2010,07,10,05,03,16.10
2010,07,10,05,04,19.30
2010,07,10,05,05,12.90
2010,07,10,05,06,19.30
2010,07,10,05,07,22.50
2010,07,10,05,08,17.70
2010,07,10,05,09,19.30
2010,07,10,05,10,22.50
2010,07,10,05,11,9.60
2010,07,10,05,12,16.10
2010,07,10,05,13,17.70
2010,07,10,05,14,22.50
2010,07,10,05,15,11.30
2010,07,10,05,16,25.70
2010,07,10,05,17,25.70
2010,07,10,05,18,16.10
2010,07,10,05,19,17.70
2010,07,10,05,20,19.30
2010,07,10,05,21,19.30
2010,07,10,05,22,20.90
2010,07,10,05,23,17.70
2010,07,10,05,24,16.10
2010,07,10,05,25,14.50
2010,07,10,05,26,22.50
2010,07,10,05,27,11.30
2010,07,10,05,28,11.30
2010,07,10,05,29,14.50
2010,07,10,05,30,24.20
2010,07,10,05,31,19.30
2010,07,10,05,32,20.90
2010,07,10,05,33,17.70
2010,07,10,05,34,12.90
2010,07,10,05,35,14.50
2010,07,10,05,36,17.70
2010,07,10,05,37,17.70
2010,07,10,05,38,17.70
2010,07,10,05,39,17.70
2010,07,10,05,40,14.50
2010,07,10,05,41,19.30
2010,07,10,05,42,11.30
2010,07,10,05,43,9.60
2010,07,10,05,44,11.30
2010,07,10,05,45,11.30
2010,07,10,05,46,19.30
2010,07,10,05,47,19.30
2010,07,10,05,48,9.60
2010,07,10,05,49,11.30
2010,07,10,05,50,11.30
2010,07,10,05,51,17.70
2010,07,10,05,52,24.20
2010,07,10,05,53,17.70
2010,07,10,05,54,17.70
2010,07,10,05,55,22.50
2010,07,10,05,56,16.10
2010,07,10,05,57,22.50
2010,07,10,05,58,19.30
2010,07,10,05,59,19.30
2010,07,10,06,00,17.70
2010,07,10,06,01,19.30
2010,07,10,06,02,16.10
2010,07,10,06,03,14.50
2010,07,10,06,04,17.70
2010,07,10,06,05,20.90
2010,07,10,06,06,17.70
2010,07,10,06,07,20.90
2010,07,10,06,08,17.70
2010,07,10,06,09,16.10
2010,07,10,06,10,20.90
2010,07,10,06,11,11.30
2010,07,10,06,12,11.30
2010,07,10,06,13,11.30
2010,07,10,06,14,8.10
2010,07,10,06,15,11.30
2010,07,10,06,16,11.30
2010,07,10,06,17,17.70
2010,07,10,06,18,16.10
2010,07,10,06,19,16.10
2010,07,10,06,20,12.90
2010,07,10,06,21,9.60
2010,07,10,06,22,11.30
2010,07,10,06,23,16.10
2010,07,10,06,24,11.30
2010,07,10,06,25,14.50
2010,07,10,06,26,14.50
2010,07,10,06,27,6.40
2010,07,10,06,28,17.70
2010,07,10,06,29,17.70
2010,07,10,06,30,16.10
2010,07,10,06,31,9.60
2010,07,10,06,32,16.10
2010,07,10,06,33,17.70
2010,07,10,06,34,16.10
2010,07,10,06,35,11.30
2010,07,10,06,36,9.60
2010,07,10,06,37,9.60
2010,07,10,06,38,19.30
2010,07,10,06,39,16.10
2010,07,10,06,40,11.30
2010,07,10,06,41,14.50
2010,07,10,06,42,14.50
2010,07,10,06,43,11.30
2010,07,10,06,44,17.70
2010,07,10,06,45,16.10
2010,07,10,06,46,9.60
2010,07,10,06,47,16.10
2010,07,10,06,48,14.50
2010,07,10,06,49,14.50
2010,07,10,06,50,12.90
2010,07,10,06,51,9.60
2010,07,10,06,52,8.10
2010,07,10,06,53,14.50
2010,07,10,06,54,17.70
2010,07,10,06,55,11.30
2010,07,10,06,56,11.30
2010,07,10,06,57,9.60
2010,07,10,06,58,11.30
2010,07,10,06,59,12.90
2010,07,10,07,00,11.30
2010,07,10,07,01,14.50
2010,07,10,07,02,11.30
2010,07,10,07,03,11.30
2010,07,10,07,04,9.60
2010,07,10,07,05,4.80
2010,07,10,07,06,4.80
2010,07,10,07,07,11.30
2010,07,10,07,08,9.60
2010,07,10,07,09,8.10
2010,07,10,07,10,6.40
2010,07,10,07,11,11.30
2010,07,10,07,12,6.40
2010,07,10,07,13,6.40
2010,07,10,07,14,6.40
2010,07,10,07,15,4.80
2010,07,10,07,16,6.40
2010,07,10,07,17,8.10
2010,07,10,07,18,8.10
2010,07,10,07,19,3.20
2010,07,10,07,20,4.80
2010,07,10,07,21,9.60
2010,07,10,07,22,8.10
2010,07,10,07,23,6.40
2010,07,10,07,24,1.60
2010,07,10,07,25,3.20
2010,07,10,07,26,8.10
2010,07,10,07,27,8.10
2010,07,10,07,28,6.40
2010,07,10,07,29,8.10
2010,07,10,07,30,1.60
2010,07,10,07,31,4.80
2010,07,10,07,32,3.20
2010,07,10,07,33,1.60
2010,07,10,07,34,1.60
2010,07,10,07,35,1.60
2010,07,10,07,36,6.40
2010,07,10,07,37,3.20
2010,07,10,07,38,1.60
2010,07,10,07,40,1.60
2010,07,10,07,46,1.60
2010,07,10,07,47,3.20
2010,07,10,07,48,1.60
2010,07,10,07,49,1.60
2010,07,10,07,51,1.60
2010,07,10,07,52,1.60
2010,07,10,07,53,1.60
2010,07,10,07,54,1.60
2010,07,10,07,55,3.20
2010,07,10,07,56,1.60
2010,07,10,07,57,1.60
2010,07,10,07,59,1.60
2010,07,10,08,02,1.60
2010,07,10,08,03,1.60
2010,07,10,08,04,6.40
2010,07,10,08,05,6.40
2010,07,10,08,06,6.40
2010,07,10,08,07,6.40
2010,07,10,08,08,6.40
2010,07,10,08,09,6.40
2010,07,10,08,10,6.40
2010,07,10,08,11,6.40
2010,07,10,08,12,6.40
2010,07,10,08,13,1.60
2010,07,10,08,14,1.60
2010,07,10,08,15,3.20
2010,07,10,08,16,4.80
2010,07,10,08,17,8.10
2010,07,10,08,18,6.40
2010,07,10,08,19,8.10
2010,07,10,08,20,8.10
2010,07,10,08,21,9.60
2010,07,10,08,22,8.10
2010,07,10,08,23,11.30
2010,07,10,08,24,8.10
2010,07,10,08,25,8.10
2010,07,10,08,26,8.10
2010,07,10,08,27,3.20
2010,07,10,08,28,3.20
2010,07,10,08,29,4.80
2010,07,10,08,30,8.10
2010,07,10,08,31,4.80
2010,07,10,08,32,4.80
2010,07,10,08,33,4.80
2010,07,10,08,34,4.80
2010,07,10,08,35,3.20
2010,07,10,08,36,3.20
2010,07,10,08,37,4.80
2010,07,10,08,38,3.20
2010,07,10,08,39,1.60
2010,07,10,08,40,4.80
2010,07,10,08,41,4.80
2010,07,10,08,42,4.80
2010,07,10,08,43,4.80
2010,07,10,08,44,4.80
2010,07,10,08,45,1.60
2010,07,10,08,46,4.80
2010,07,10,08,47,4.80
2010,07,10,08,48,4.80
2010,07,10,08,49,4.80
2010,07,10,08,50,3.20
2010,07,10,08,51,3.20
2010,07,10,08,52,4.80
2010,07,10,08,53,4.80
2010,07,10,08,54,4.80
2010,07,10,08,55,4.80
2010,07,10,08,56,4.80
2010,07,10,08,57,8.10
2010,07,10,08,58,6.40
2010,07,10,08,59,6.40
2010,07,10,09,00,6.40
2010,07,10,09,01,8.10
2010,07,10,09,02,8.10
2010,07,10,09,03,8.10
2010,07,10,09,04,4.80
2010,07,10,09,05,4.80
2010,07,10,09,06,6.40
2010,07,10,09,07,6.40
2010,07,10,09,08,4.80
2010,07,10,09,09,9.60
2010,07,10,09,10,9.60
2010,07,10,09,11,8.10
2010,07,10,09,12,8.10
2010,07,10,09,13,4.80
2010,07,10,09,14,6.40
2010,07,10,09,15,8.10
2010,07,10,09,16,6.40
2010,07,10,09,17,8.10
2010,07,10,09,18,6.40
2010,07,10,09,19,8.10
2010,07,10,09,20,8.10
2010,07,10,09,21,6.40
2010,07,10,09,22,4.80
2010,07,10,09,23,4.80
2010,07,10,09,24,4.80
2010,07,10,09,25,6.40
2010,07,10,09,26,1.60
2010,07,10,09,27,3.20
2010,07,10,09,28,4.80
2010,07,10,09,29,6.40
2010,07,10,09,30,3.20
2010,07,10,09,31,6.40
2010,07,10,09,32,8.10
2010,07,10,09,33,6.40
2010,07,10,09,34,8.10
2010,07,10,09,35,6.40
2010,07,10,09,36,8.10
2010,07,10,09,37,8.10
2010,07,10,09,38,6.40
2010,07,10,09,39,6.40
2010,07,10,09,40,9.60
2010,07,10,09,41,8.10
2010,07,10,09,42,8.10
2010,07,10,09,43,6.40
2010,07,10,09,44,8.10
2010,07,10,09,45,6.40
2010,07,10,09,46,8.10
2010,07,10,09,47,8.10
2010,07,10,09,48,6.40
2010,07,10,09,49,4.80
2010,07,10,09,50,4.80
2010,07,10,09,51,6.40
2010,07,10,09,52,6.40
2010,07,10,09,53,4.80
2010,07,10,09,54,9.60
2010,07,10,09,55,8.10
2010,07,10,09,56,6.40
2010,07,10,09,57,6.40
2010,07,10,09,58,3.20
2010,07,10,09,59,3.20
2010,07,10,10,00,4.80
2010,07,10,10,01,1.60
2010,07,10,10,02,3.20
2010,07,10,10,03,3.20
2010,07,10,10,04,4.80
2010,07,10,10,05,3.20
2010,07,10,10,06,4.80
2010,07,10,10,07,4.80
2010,07,10,10,08,4.80
2010,07,10,10,09,9.60
2010,07,10,10,10,9.60
2010,07,10,10,11,9.60
2010,07,10,10,12,9.60
2010,07,10,10,13,9.60
2010,07,10,10,14,9.60
2010,07,10,10,15,9.60
2010,07,10,10,16,8.10
2010,07,10,10,17,8.10
2010,07,10,10,18,8.10
2010,07,10,10,19,6.40
2010,07,10,10,20,8.10
2010,07,10,10,21,8.10
2010,07,10,10,22,8.10
2010,07,10,10,23,9.60
2010,07,10,10,24,8.10
2010,07,10,10,25,8.10
2010,07,10,10,26,8.10
2010,07,10,10,27,8.10
2010,07,10,10,28,6.40
2010,07,10,10,29,1.60
2010,07,10,10,30,3.20
2010,07,10,10,31,4.80
2010,07,10,10,32,4.80
2010,07,10,10,33,6.40
2010,07,10,10,34,4.80
2010,07,10,10,35,6.40
2010,07,10,10,36,9.60
2010,07,10,10,37,8.10
2010,07,10,10,38,8.10
2010,07,10,10,39,6.40
2010,07,10,10,40,6.40
2010,07,10,10,41,8.10
2010,07,10,10,42,11.30
2010,07,10,10,43,9.60
2010,07,10,10,44,8.10
2010,07,10,10,45,6.40
2010,07,10,10,46,8.10
2010,07,10,10,47,8.10
2010,07,10,10,48,6.40
2010,07,10,10,49,6.40
2010,07,10,10,50,8.10
2010,07,10,10,51,6.40
2010,07,10,10,52,8.10
2010,07,10,10,53,8.10
2010,07,10,10,54,6.40
2010,07,10,10,55,6.40
2010,07,10,10,56,6.40
2010,07,10,10,57,8.10
2010,07,10,10,58,8.10
2010,07,10,10,59,6.40
2010,07,10,11,00,8.10
2010,07,10,11,01,8.10
2010,07,10,11,02,8.10
2010,07,10,11,03,6.40
2010,07,10,11,04,4.80
2010,07,10,11,05,9.60
2010,07,10,11,06,9.60
2010,07,10,11,07,9.60
2010,07,10,11,08,8.10
2010,07,10,11,09,8.10
2010,07,10,11,10,3.20
2010,07,10,11,11,8.10
2010,07,10,11,12,4.80
2010,07,10,11,13,3.20
2010,07,10,11,14,9.60
2010,07,10,11,15,4.80
2010,07,10,11,16,4.80
2010,07,10,11,17,6.40
2010,07,10,11,18,1.60
2010,07,10,11,19,3.20
2010,07,10,11,20,9.60
2010,07,10,11,21,11.30
2010,07,10,11,22,8.10
2010,07,10,11,23,6.40
2010,07,10,11,24,6.40
2010,07,10,11,25,3.20
2010,07,10,11,26,4.80
2010,07,10,11,27,6.40
2010,07,10,11,28,4.80
2010,07,10,11,29,4.80
2010,07,10,11,30,6.40
2010,07,10,11,31,9.60
2010,07,10,11,32,8.10
2010,07,10,11,33,6.40
2010,07,10,11,34,6.40
2010,07,10,11,35,8.10
2010,07,10,11,36,9.60
2010,07,10,11,37,9.60
2010,07,10,11,38,9.60
2010,07,10,11,39,9.60
2010,07,10,11,40,14.50
2010,07,10,11,41,11.30
2010,07,10,11,42,11.30
2010,07,10,11,43,9.60
2010,07,10,11,44,9.60
2010,07,10,11,45,11.30
2010,07,10,11,46,8.10
2010,07,10,11,47,4.80
2010,07,10,11,48,6.40
2010,07,10,11,49,3.20
2010,07,10,11,50,4.80
2010,07,10,11,51,8.10
2010,07,10,11,52,8.10
2010,07,10,11,53,9.60
2010,07,10,11,54,8.10
2010,07,10,11,55,6.40
2010,07,10,11,56,8.10
2010,07,10,11,57,4.80
2010,07,10,11,58,6.40
2010,07,10,11,59,6.40
2010,07,10,12,00,8.10
2010,07,10,12,01,4.80
2010,07,10,12,02,4.80
2010,07,10,12,03,3.20
2010,07,10,12,04,3.20
2010,07,10,12,05,8.10
2010,07,10,12,06,3.20
2010,07,10,12,07,8.10
2010,07,10,12,08,6.40
2010,07,10,12,09,4.80
2010,07,10,12,10,6.40
2010,07,10,12,11,4.80
2010,07,10,12,12,4.80
2010,07,10,12,13,9.60
2010,07,10,12,14,3.20
2010,07,10,12,15,6.40
2010,07,10,12,16,4.80
2010,07,10,12,17,8.10
2010,07,10,12,18,8.10
2010,07,10,12,19,8.10
2010,07,10,12,20,8.10
2010,07,10,12,21,8.10
2010,07,10,12,22,8.10
2010,07,10,12,23,8.10
2010,07,10,12,24,8.10
2010,07,10,12,25,8.10
2010,07,10,12,26,6.40
2010,07,10,12,27,8.10
2010,07,10,12,28,6.40
2010,07,10,12,29,8.10
2010,07,10,12,30,6.40
2010,07,10,12,31,1.60
2010,07,10,12,32,1.60
2010,07,10,12,33,6.40
2010,07,10,12,34,6.40
2010,07,10,12,35,6.40
2010,07,10,12,36,9.60
2010,07,10,12,37,4.80
2010,07,10,12,38,1.60
2010,07,10,12,39,6.40
2010,07,10,12,40,4.80
2010,07,10,12,41,6.40
2010,07,10,12,42,4.80
2010,07,10,12,43,6.40
2010,07,10,12,44,6.40
2010,07,10,12,45,6.40
2010,07,10,12,46,4.80
2010,07,10,12,47,8.10
2010,07,10,12,48,8.10
2010,07,10,12,49,9.60
2010,07,10,12,50,8.10
2010,07,10,12,51,8.10
2010,07,10,12,52,11.30
2010,07,10,12,53,14.50
2010,07,10,12,54,6.40
2010,07,10,12,55,8.10
2010,07,10,12,56,3.20
2010,07,10,12,57,4.80
2010,07,10,12,58,6.40
2010,07,10,12,59,4.80
2010,07,10,13,00,9.60
2010,07,10,13,01,9.60
2010,07,10,13,02,8.10
2010,07,10,13,03,3.20
2010,07,10,13,04,8.10
2010,07,10,13,05,9.60
2010,07,10,13,06,11.30
2010,07,10,13,07,11.30
2010,07,10,13,08,8.10
2010,07,10,13,09,3.20
2010,07,10,13,10,8.10
2010,07,10,13,11,1.60
2010,07,10,13,12,4.80
2010,07,10,13,13,11.30
2010,07,10,13,14,17.70
2010,07,10,13,15,6.40
2010,07,10,13,16,4.80
2010,07,10,13,17,4.80
2010,07,10,13,18,6.40
2010,07,10,13,19,9.60
2010,07,10,13,20,8.10
2010,07,10,13,21,9.60
2010,07,10,13,22,9.60
2010,07,10,13,23,4.80
2010,07,10,13,24,3.20
2010,07,10,13,26,3.20
2010,07,10,13,27,4.80
2010,07,10,13,28,9.60
2010,07,10,13,29,8.10
2010,07,10,13,30,6.40
2010,07,10,13,31,4.80
2010,07,10,13,32,6.40
2010,07,10,13,33,6.40
2010,07,10,13,34,8.10
2010,07,10,13,35,8.10
2010,07,10,13,36,4.80
2010,07,10,13,37,11.30
2010,07,10,13,38,11.30
2010,07,10,13,39,8.10
2010,07,10,13,40,8.10
2010,07,10,13,41,12.90
2010,07,10,13,42,9.60
2010,07,10,13,43,4.80
2010,07,10,13,44,4.80
2010,07,10,13,45,6.40
2010,07,10,13,46,6.40
2010,07,10,13,47,8.10
2010,07,10,13,48,11.30
2010,07,10,13,49,8.10
2010,07,10,13,50,16.10
2010,07,10,13,51,9.60
2010,07,10,13,52,9.60
2010,07,10,13,53,8.10
2010,07,10,13,54,8.10
2010,07,10,13,55,11.30
2010,07,10,13,56,12.90
2010,07,10,13,57,9.60
2010,07,10,13,58,4.80
2010,07,10,13,59,4.80
2010,07,10,14,00,6.40
2010,07,10,14,01,9.60
2010,07,10,14,02,9.60
2010,07,10,14,03,8.10
2010,07,10,14,04,4.80
2010,07,10,14,05,9.60
2010,07,10,14,06,9.60
2010,07,10,14,07,9.60
2010,07,10,14,08,8.10
2010,07,10,14,09,9.60
2010,07,10,14,10,8.10
2010,07,10,14,11,8.10
2010,07,10,14,12,11.30
2010,07,10,14,13,11.30
2010,07,10,14,14,9.60
2010,07,10,14,15,6.40
2010,07,10,14,16,8.10
2010,07,10,14,17,11.30
2010,07,10,14,18,9.60
2010,07,10,14,19,8.10
2010,07,10,14,20,8.10
2010,07,10,14,21,3.20
2010,07,10,14,22,6.40
2010,07,10,14,23,8.10
2010,07,10,14,24,6.40
2010,07,10,14,25,8.10
2010,07,10,14,26,4.80
2010,07,10,14,27,4.80
2010,07,10,14,28,9.60
2010,07,10,14,29,8.10
2010,07,10,14,30,6.40
2010,07,10,14,31,8.10
2010,07,10,14,32,6.40
2010,07,10,14,33,4.80
2010,07,10,14,34,6.40
2010,07,10,14,35,3.20
2010,07,10,14,36,9.60
2010,07,10,14,37,4.80
2010,07,10,14,38,8.10
2010,07,10,14,39,11.30
2010,07,10,14,40,6.40
2010,07,10,14,41,4.80
2010,07,10,14,42,8.10
2010,07,10,14,43,6.40
2010,07,10,14,44,11.30
2010,07,10,14,45,8.10
2010,07,10,14,46,6.40
2010,07,10,14,47,6.40
2010,07,10,14,48,8.10
2010,07,10,14,49,4.80
2010,07,10,14,50,9.60
2010,07,10,14,51,9.60
2010,07,10,14,52,9.60
2010,07,10,14,53,11.30
2010,07,10,14,54,11.30
2010,07,10,14,55,11.30
2010,07,10,14,56,11.30
2010,07,10,14,57,12.90
2010,07,10,14,58,11.30
2010,07,10,14,59,9.60
2010,07,10,15,00,8.10
2010,07,10,15,01,8.10
2010,07,10,15,02,8.10
2010,07,10,15,03,6.40
2010,07,10,15,04,4.80
2010,07,10,15,05,8.10
2010,07,10,15,06,14.50
2010,07,10,15,07,8.10
2010,07,10,15,08,8.10
2010,07,10,15,09,8.10
2010,07,10,15,10,9.60
2010,07,10,15,11,8.10
2010,07,10,15,12,14.50
2010,07,10,15,13,12.90
2010,07,10,15,14,8.10
2010,07,10,15,15,11.30
2010,07,10,15,16,9.60
2010,07,10,15,17,9.60
2010,07,10,15,18,14.50
2010,07,10,15,19,11.30
2010,07,10,15,20,12.90
2010,07,10,15,21,8.10
2010,07,10,15,22,8.10
2010,07,10,15,23,8.10
2010,07,10,15,24,4.80
2010,07,10,15,25,16.10
2010,07,10,15,26,14.50
2010,07,10,15,27,12.90
2010,07,10,15,28,9.60
2010,07,10,15,29,16.10
2010,07,10,15,30,9.60
2010,07,10,15,31,4.80
2010,07,10,15,32,3.20
2010,07,10,15,33,8.10
2010,07,10,15,34,8.10
2010,07,10,15,35,4.80
2010,07,10,15,36,8.10
2010,07,10,15,37,9.60
2010,07,10,15,38,9.60
2010,07,10,15,39,11.30
2010,07,10,15,40,6.40
2010,07,10,15,41,16.10
2010,07,10,15,42,8.10
2010,07,10,15,43,9.60
2010,07,10,15,44,9.60
2010,07,10,15,45,3.20
2010,07,10,15,46,4.80
2010,07,10,15,47,6.40
2010,07,10,15,48,4.80
2010,07,10,15,49,11.30
2010,07,10,15,50,9.60
2010,07,10,15,51,8.10
2010,07,10,15,52,3.20
2010,07,10,15,53,11.30
2010,07,10,15,54,11.30
2010,07,10,15,55,4.80
2010,07,10,15,56,14.50
2010,07,10,15,57,8.10
2010,07,10,15,58,9.60
2010,07,10,15,59,11.30
2010,07,10,16,00,16.10
2010,07,10,16,01,8.10
2010,07,10,16,02,11.30
2010,07,10,16,03,9.60
2010,07,10,16,04,9.60
2010,07,10,16,05,11.30
2010,07,10,16,06,9.60
2010,07,10,16,07,12.90
2010,07,10,16,08,12.90
2010,07,10,16,09,8.10
2010,07,10,16,10,11.30
2010,07,10,16,11,11.30
2010,07,10,16,12,3.20
2010,07,10,16,13,6.40
2010,07,10,16,14,8.10
2010,07,10,16,15,9.60
2010,07,10,16,16,6.40
2010,07,10,16,17,4.80
2010,07,10,16,18,8.10
2010,07,10,16,19,1.60
2010,07,10,16,20,8.10
2010,07,10,16,21,14.50
2010,07,10,16,22,11.30
2010,07,10,16,23,6.40
2010,07,10,16,24,11.30
2010,07,10,16,25,11.30
2010,07,10,16,26,8.10
2010,07,10,16,27,8.10
2010,07,10,16,28,8.10
2010,07,10,16,29,12.90
2010,07,10,16,30,11.30
2010,07,10,16,31,6.40
2010,07,10,16,32,9.60
2010,07,10,16,33,22.50
2010,07,10,16,34,14.50
2010,07,10,16,35,9.60
2010,07,10,16,36,9.60
2010,07,10,16,37,14.50
2010,07,10,16,38,9.60
2010,07,10,16,39,9.60
2010,07,10,16,40,11.30
2010,07,10,16,41,6.40
2010,07,10,16,42,11.30
2010,07,10,16,43,11.30
2010,07,10,16,44,9.60
2010,07,10,16,45,16.10
2010,07,10,16,46,16.10
2010,07,10,16,47,6.40
2010,07,10,16,48,8.10
2010,07,10,16,49,11.30
2010,07,10,16,50,6.40
2010,07,10,16,51,12.90
2010,07,10,16,52,9.60
2010,07,10,16,53,14.50
2010,07,10,16,54,11.30
2010,07,10,16,55,16.10
2010,07,10,16,56,14.50
2010,07,10,16,57,9.60
2010,07,10,16,58,8.10
2010,07,10,16,59,14.50
2010,07,10,17,00,11.30
2010,07,10,17,01,16.10
2010,07,10,17,02,17.70
2010,07,10,17,03,11.30
2010,07,10,17,04,6.40
2010,07,10,17,05,4.80
2010,07,10,17,06,14.50
2010,07,10,17,07,19.30
2010,07,10,17,08,17.70
2010,07,10,17,09,17.70
2010,07,10,17,10,16.10
2010,07,10,17,11,11.30
2010,07,10,17,12,9.60
2010,07,10,17,13,14.50
2010,07,10,17,14,11.30
2010,07,10,17,15,14.50
2010,07,10,17,16,14.50
2010,07,10,17,17,8.10
2010,07,10,17,18,17.70
2010,07,10,17,19,14.50
2010,07,10,17,20,16.10
2010,07,10,17,21,9.60
2010,07,10,17,22,16.10
2010,07,10,17,23,9.60
2010,07,10,17,24,8.10
2010,07,10,17,25,11.30
2010,07,10,17,26,11.30
2010,07,10,17,27,14.50
2010,07,10,17,28,17.70
2010,07,10,17,29,17.70
2010,07,10,17,30,14.50
2010,07,10,17,31,9.60
2010,07,10,17,32,17.70
2010,07,10,17,33,14.50
2010,07,10,17,34,19.30
2010,07,10,17,35,14.50
2010,07,10,17,36,9.60
2010,07,10,17,37,11.30
2010,07,10,17,38,8.10
2010,07,10,17,39,11.30
2010,07,10,17,40,6.40
2010,07,10,17,41,9.60
2010,07,10,17,42,14.50
2010,07,10,17,43,8.10
2010,07,10,17,44,14.50
2010,07,10,17,45,9.60
2010,07,10,17,46,9.60
2010,07,10,17,47,11.30
2010,07,10,17,48,11.30
2010,07,10,17,49,14.50
2010,07,10,17,50,9.60
2010,07,10,17,51,12.90
2010,07,10,17,52,16.10
2010,07,10,17,53,17.70